EW5295 Weather Reports


time (UTC)temp
C
wind
direction
speed
KPH
gust
KPH
rain 1hr
cm
rain 24hr
cm
rain mn
cm
humidity
%
barometer
mb
20260510100020 12 161 0.0 3.2 0.00 0.00 0.00 82 1015.2
20260510094518 12 167 0.0 3.2 0.00 0.00 0.00 81 1014.8
20260510093016 13 139 0.0 1.6 0.00 0.00 0.00 80 1015.1
20260510091511 13 197 0.0 3.2 0.00 0.00 0.00 78 1015.2
20260510090106 13 159 0.0 0.0 0.00 0.00 0.00 77 1015.2
20260510084600 13 164 0.0 1.6 0.00 0.00 0.00 77 1015.1
20260510083102 13 143 0.0 1.6 0.00 0.00 0.00 76 1014.9
20260510081555 13 143 0.0 0.0 0.00 0.00 0.00 76 1014.9
20260510080056 13 143 0.0 0.0 0.00 0.00 0.00 74 1014.9
20260510074607 14 143 0.0 0.0 0.00 0.00 0.00 72 1014.9
20260510073050 15 143 0.0 0.0 0.00 0.00 0.00 72 1014.8
20260510071556 15 143 0.0 0.0 0.00 0.00 0.00 71 1014.9
20260510070031 15 143 0.0 0.0 0.00 0.00 0.00 70 1014.9
20260510064529 15 143 0.0 0.0 0.00 0.00 0.00 69 1014.9
20260510063014 15 143 0.0 0.0 0.00 0.00 0.00 68 1014.8
20260510061513 15 143 0.0 0.0 0.00 0.00 0.00 67 1014.7
20260510060011 15 138 0.0 0.0 0.00 0.00 0.00 65 1014.8
20260510054510 16 138 0.0 0.0 0.00 0.00 0.00 63 1014.8
20260510053004 16 138 0.0 0.0 0.00 0.00 0.00 61 1014.7
20260510051501 17 138 0.0 0.0 0.00 0.00 0.00 59 1014.6
20260510050100 17 138 0.0 1.6 0.00 0.00 0.00 57 1014.7
20260510044602 17 146 0.0 0.0 0.00 0.00 0.00 55 1014.7
20260510043050 17 162 0.0 0.0 0.00 0.00 0.00 56 1014.6
20260510041605 17 151 0.0 0.0 0.00 0.00 0.00 59 1014.5
20260510040044 18 152 0.0 0.0 0.00 0.00 0.00 58 1014.1
20260510034539 18 152 0.0 0.0 0.00 0.00 0.00 56 1014.1
20260510033035 19 152 0.0 0.0 0.00 0.00 0.00 54 1013.9
20260510031531 20 153 0.0 0.0 0.00 0.00 0.00 51 1013.8
20260510030027 20 150 0.0 1.6 0.00 0.00 0.00 49 1013.9
20260510024524 21 163 0.0 1.6 0.00 0.00 0.00 47 1013.8
20260510023020 21 193 0.0 3.2 0.00 0.00 0.00 46 1013.8
20260510021553 22 127 0.0 1.6 0.00 0.00 0.00 46 1013.8
20260510020053 22 139 0.0 3.2 0.00 0.00 0.00 45 1013.9
20260510014539 23 167 0.0 3.2 0.00 0.00 0.00 44 1013.9
20260510013034 23 158 0.0 3.2 0.00 0.00 0.00 42 1014.1
20260510011536 24 167 0.0 1.6 0.00 0.00 0.00 41 1014.1
20260510010037 24 205 0.0 3.2 0.00 0.00 0.00 41 1014.3
20260510004528 24 148 0.0 4.8 0.00 0.00 0.00 38 1014.3
20260510003026 25 159 0.0 3.2 0.00 0.00 0.00 37 1014.4
20260510001527 25 148 0.0 0.0 0.00 0.00 0.00 35 1014.4
20260510000023 25 171 0.0 3.2 0.00 0.00 0.00 34 1014.6
20260509234520 25 179 0.0 4.8 0.00 0.00 0.00 34 1014.7
20260509233018 25 153 0.0 1.6 0.00 0.00 0.00 34 1014.7
20260509231526 25 199 0.0 3.2 0.00 0.00 0.00 33 1015.0
20260509230015 25 141 0.0 3.2 0.00 0.00 0.00 32 1015.1
20260509224512 25 150 0.0 3.2 0.00 0.00 0.00 35 1015.4
20260509223008 25 124 0.0 3.2 0.00 0.00 0.00 35 1015.7
20260509221601 25 93 0.0 4.8 0.00 0.00 0.00 36 1016.2
20260509220043 25 229 0.0 3.2 0.00 0.00 0.00 33 1016.4
20260509214523 25 139 0.0 3.2 0.00 0.00 0.00 40 1016.5
20260509213020 25 167 0.0 3.2 0.00 0.00 0.00 43 1016.6
20260509211516 24 155 0.0 4.8 0.00 0.00 0.00 42 1016.8
20260509210015 24 212 0.0 4.8 0.00 0.00 0.00 45 1016.9
20260509204508 23 152 0.0 3.2 0.00 0.00 0.00 43 1016.9
20260509203006 23 130 0.0 4.8 0.00 0.00 0.00 42 1017.1
20260509201502 22 153 0.0 4.8 0.00 0.00 0.00 44 1017.4
20260509200107 22 141 0.0 3.2 0.00 0.00 0.00 45 1017.5
20260509194541 22 146 0.0 3.2 0.00 0.00 0.00 48 1017.8
20260509193041 21 155 0.0 3.2 0.00 0.00 0.00 50 1017.9
20260509191521 21 177 0.0 3.2 0.00 0.00 0.00 54 1018.1
20260509190032 21 291 0.0 3.2 0.00 0.00 0.00 53 1018.3
20260509184526 20 124 0.0 8.0 0.00 0.00 0.00 57 1018.5
20260509183017 20 97 0.0 3.2 0.00 0.00 0.00 56 1018.7
20260509181511 19 163 0.0 3.2 0.00 0.00 0.00 61 1018.8
20260509180010 18 131 0.0 1.6 0.00 0.00 0.00 65 1018.9
20260509174509 17 191 0.0 3.2 0.00 0.00 0.00 66 1018.9
20260509173011 17 172 0.0 4.8 0.00 0.00 0.00 69 1019.0
20260509171606 16 169 0.0 1.6 0.00 0.00 0.00 71 1019.2
20260509170050 15 194 0.0 1.6 0.00 0.00 0.00 74 1019.5
20260509164551 15 134 0.0 3.2 0.00 0.00 0.00 74 1019.5
20260509163053 14 127 0.0 1.6 0.00 0.00 0.00 77 1019.6
20260509161543 13 158 0.0 1.6 0.00 0.00 0.00 80 1019.9
20260509160044 13 170 0.0 1.6 0.00 0.00 0.00 82 1020.2
20260509154543 12 131 0.0 1.6 0.00 0.00 0.00 84 1020.1
20260509153044 11 176 0.0 1.6 0.00 0.00 0.00 85 1020.0
20260509151540 11 171 0.0 1.6 0.00 0.00 0.00 87 1020.4
20260509150017 11 166 0.0 1.6 0.00 0.00 0.00 88 1020.5
20260509144516 10 189 0.0 3.2 0.00 0.00 0.00 90 1020.5
20260509143017 10 165 0.0 1.6 0.00 0.00 0.00 92 1020.3
20260509141521 9 130 0.0 0.0 0.00 0.00 0.00 95 1020.4
20260509140018 8 129 0.0 0.0 0.00 0.00 0.00 95 1020.3
20260509134612 -17 0.0 0.0 0.00 0.00 0.00 1020.3
20260509133055 -17 0.0 0.0 0.00 0.00 0.00 1020.0
20260509131609 -17 0.0 0.0 0.00 0.00 0.00 1020.0
20260509130059 -17 0.0 0.0 0.00 0.00 0.00 1020.1
20260509124548 7 125 0.0 0.0 0.00 0.00 0.00 93 1019.9
20260509123049 8 128 0.0 0.0 0.00 0.00 0.00 93 1020.1
20260509121548 8 128 0.0 0.0 0.00 0.00 0.00 93 1020.3
20260509120040 8 128 0.0 0.0 0.00 0.00 0.00 92 1020.2
20260509114537 8 128 0.0 0.0 0.00 0.00 0.00 91 1020.2
20260509113024 8 128 0.0 0.0 0.00 0.00 0.00 91 1020.3
20260509111524 9 127 0.0 0.0 0.00 0.00 0.00 90 1020.4
20260509110025 9 127 0.0 3.2 0.00 0.00 0.00 90 1020.6
20260509104522 10 142 0.0 1.6 0.00 0.00 0.00 90 1020.8
20260509103025 10 154 0.0 3.2 0.00 0.00 0.00 90 1020.8
20260509101522 10 158 0.0 3.2 0.00 0.00 0.00 90 1020.8